Showing default

METEOR M2-3, 57166

Orbit data source: Space-Track

METEOR M2-3, 57166 is a Commonwealth of Independent States-origin payload satellite in SSO that was launched on Tue, 27 Jun 2023 UTC via a SOYUZ-2-1B launch vehicle from the Vostochny Cosmodrome (VOSTO). Payload-class satellites include a variety of spacecraft equipped with specific instruments for various scientific and technological missions. These include communications satellites like Starlink; space stations such as the ISS; scientific satellites like the Hubble; Earth observation satellites from companies like Planet Labs, Umbra, and HawkEye 360; GPS; miniature CubeSats for education and research; and military/defense satellites.

Loading next visibility...
Identifier
57166, 2023-091A
Orbit
SSO
Country
Flag of CISCIS
Related business
Manufacturer
VNIIEM
Mission
Operational Civil Weather
Bus & Motor
RESURS-O, Unknown motor
Mass
2,879 kg wet, ~2,600 kg dry
Launch date (UTC)
2023-06-27 (3 years ago)
Launch vehicle
SOYUZ-2-1B
Launch site
Vostochny Cosmodrome (VOSTO)
Object type
Payload
Rocket body
Debris
Shape & HBR
Cyl + 2 Pan, 7.0 m
Radar Cross Section
26.744 m², Large (>1 m²)

Expand to show TLE details & history
Last TLE update: 6 hours ago

TLE from 6 hours ago
0 METEOR M2-3
1 57166U 23091A   26104.22994148 -.00000003  00000-0  17665-4 0  9995
2 57166  98.6142 160.4986 0003981  14.1213 346.0076 14.24041376145417
Epoch: 2026-04-14T05:31Z
TLE epoch observation values (Epoch: 2026-04-14T05:31:06.943Z)
Latitude
-0.00011°
Longitude
-124.68949°
Altitude
811.863 km
Speed
7.449 km/s
True Right ascension
10h 41m 59s
True Declination
0° 00' 00"
Sunlit
Object was in full shadow at epoch
Visualization orbit readout
Latitude
Unknown
Longitude
Unknown
Altitude
Unknown
Speed
Unknown
Apparent Right ascension
Unknown
Apparent Declination
Unknown
Sunlit
N/A
Visualization observer readout
Local Sidereal Time
18:10:04
Azimuth
Unknown
Elevation
Unknown
Doppler factor
Unknown
Orbital elements
Apogee altitude
811.727 km
Perigee altitude
806.005 km
Semi-major axis
7,187.003 km
Eccentricity
0.0004
Inclination
98.6142°
RAAN
160.4986°
Arg. of periapsis
14.1213°
True anomaly
345.99656°
Mean anomaly
346.0076°
Eccentric anomaly
346.00208°
Mean motion
3.56223 °/min
Orbital period
101.06 mins
BSTAR
0.000017665
Loading maneuver chart data...
Computing Atmospheric mass density...
Loading historical data...
Loading historical data...
Loading historical data...
Loading historical data...
Loading historical data...
Loading historical data...
Loading historical data...

Documentation

Showing up to 5 results
|